sat.trackr.live / text

‹ back to catalog

KINEIS-1A

NORAD 60084 · 2024-114F

PAYLOAD ACTIVE UNKNOWN

§ Identity

Operator
Country
FR
Launch date
2024-06-20
Launch site
RLLB
Launch vehicle
Mass (kg)
RCS (m²)

External: N2YO · Heavens-Above · Gunter

§ Orbital elements

Epoch: 2026-05-25T03:49:56.896320Z

Period
97.26 min
Inclination
97.8927°
Eccentricity
0.0003484
Mean motion
14.80578724 rev/d
Perigee alt
625.1 km
Apogee alt
629.9 km
Semi-major
7,005.6 km
B*
9.0667e-5
RAAN
169.0467°
Arg perigee
193.6511°
Mean anomaly
166.4608°
Rev number
10,398

§ Raw data

KINEIS-1A1 60084U 24114F   26145.15968630  .00000644  00000+0  90667-4 0  99912 60084  97.8927 169.0467 0003484 193.6511 166.4608 14.80578724103988

JSON: /api/v1/satellites/60084 · /tle

For live sub-satellite position, see the globe view (requires WebGL).

§ Visibility from observer

Set your observer location to see the next 7 days of passes ≥ 10°. The values pass through the URL so the page stays shareable.

No JS? Fill the form by hand. The geolocation button needs JavaScript.

§ Radio — SatNOGS DB

ModeDescriptionDownlinkUplink
FSK AX.100 Mode 5 Mode U - Telemetry 400.657 MHz
BPSK S-band telemetry 2.261 GHz
BPSK S-band telemetry 2.266 GHz

3 transmitters · refreshed weekly from db.satnogs.org